Weather in Stegalovka

Russia / Lipetsk Oblast     52°24′36″N   38°19′07″E
temp.,
°C
wind,
m/s
gust,
m/s
humid.,
%
clouds,
%
prec.,
mm/h
press.,
hPa
HPBL,
m
9 may, sun
sun900:00+9ssw3796100 0.0 1005236
03:00+5wsw61094100 0.3 1007488
06:00+4wnw71197100 0.2 1008658
09:00+4nw71396100 0.3 1010783
12:00+6nw9128197 0.1 10131183
15:00+8nw81176100 0.5 10151268
18:00+7nnw8127887 0.4 10171189
21:00+5nw498172 0.4 1020255
10 may, mon
mon1000:00+4nnw49885 0.0 1021212
03:00+3nw410905 0.0 1022208
06:00+4nnw6148026 0.0 1023402
09:00+9n814614 0.0 10241407
12:00+11n10134825 0.0 10231614
15:00+12nne91356100 0.0 10211539
18:00+10nne81462100 0.0 10211060
21:00+10nne91771100 0.0 1021737
11 may, tue
tue1100:00+9nne81779100 0.1 1021674
03:00+9nne91888100 0.3 1020496
06:00+9nne81789100 0.1 1020536
09:00+13ne9158190 0.1 1019647
12:00+13ese71185100 0.1 1020930
15:00+13e7107399 0.4 10221203
18:00+13ese696631 0.0 10231296
21:00+9ese410822 0.1 1026338
12 may, wed
wed1200:00+7ese239310 0.0 102758
03:00+6ne349098 0.0 102675
06:00+7ne4990100 0.0 1025255
09:00+11ene5771100 0.0 1023693
12:00+9ene2284100 4.2 1022592
15:00+9ene2286100 7.1 1021329
18:00+11e587993 0.0 1020710
21:00+9e51292100 0.0 1019279
13 may, thu
thu1300:00+11ese61591100 0.1 1018476
03:00+10e3796100 0.6 1019221
06:00+10ese269597 0.2 1019215
09:00+15sse47741 0.2 1018546
12:00+19sse466157 0.1 10181505
15:00+19sse246599 0.1 1018913
18:00+19ese356915 0.1 1018159
21:00+15ese2270100 0.1 101816